TimeAKDT,TemperatureF,Dew PointF,Humidity,Sea Level PressureIn,VisibilityMPH,Wind Direction,Wind SpeedMPH,Gust SpeedMPH,PrecipitationIn,Events,Conditions,WindDirDegrees,DateUTC
12:16 AM,30.2,24.8,80,29.96,10.0,SE,6.9,-,N/A,,Clear,140,2013-08-30 08:16:00
12:36 AM,30.2,24.8,80,29.96,10.0,SE,6.9,-,N/A,,Clear,140,2013-08-30 08:36:00
12:56 AM,30.2,24.8,80,29.96,10.0,SE,5.8,-,N/A,,Clear,140,2013-08-30 08:56:00
1:16 AM,30.2,24.8,80,29.97,10.0,SSE,4.6,-,N/A,,Clear,150,2013-08-30 09:16:00
1:36 AM,30.2,26.6,86,29.97,10.0,SSE,3.5,-,N/A,,Mostly Cloudy,160,2013-08-30 09:36:00
1:56 AM,30.2,26.6,86,29.97,10.0,SE,4.6,-,N/A,,Overcast,130,2013-08-30 09:56:00
2:16 AM,30.2,24.8,80,29.97,10.0,SE,5.8,-,N/A,,Overcast,130,2013-08-30 10:16:00
2:36 AM,30.2,26.6,86,29.97,10.0,SE,6.9,-,N/A,,Overcast,130,2013-08-30 10:36:00
2:56 AM,32.0,24.8,75,29.97,10.0,SE,4.6,-,N/A,,Overcast,140,2013-08-30 10:56:00
3:16 AM,32.0,26.6,80,29.97,10.0,SE,3.5,-,N/A,,Overcast,130,2013-08-30 11:16:00
3:36 AM,30.2,26.6,86,29.97,10.0,SSE,5.8,-,N/A,,Overcast,150,2013-08-30 11:36:00
3:56 AM,30.2,26.6,86,29.97,10.0,Calm,Calm,-,N/A,,Overcast,0,2013-08-30 11:56:00
4:16 AM,35.6,26.6,70,29.97,10.0,SSW,4.6,-,N/A,,Overcast,200,2013-08-30 12:16:00
4:36 AM,37.4,28.4,70,29.97,10.0,SSW,5.8,-,N/A,,Overcast,200,2013-08-30 12:36:00
4:56 AM,37.4,26.6,65,29.97,10.0,SSW,6.9,-,N/A,,Overcast,200,2013-08-30 12:56:00
5:16 AM,37.4,26.6,65,29.97,10.0,South,6.9,-,N/A,,Overcast,190,2013-08-30 13:16:00
5:36 AM,37.4,26.6,65,29.99,10.0,Calm,Calm,-,N/A,,Overcast,0,2013-08-30 13:36:00
5:56 AM,37.4,28.4,70,29.99,10.0,SSW,4.6,-,N/A,,Overcast,210,2013-08-30 13:56:00
6:16 AM,35.6,30.2,81,29.99,10.0,SW,6.9,-,N/A,,Overcast,230,2013-08-30 14:16:00
6:36 AM,35.6,30.2,81,29.99,10.0,SW,9.2,-,N/A,,Overcast,220,2013-08-30 14:36:00
6:56 AM,35.6,30.2,81,29.99,10.0,SW,10.4,-,N/A,,Overcast,220,2013-08-30 14:56:00
7:16 AM,35.6,30.2,81,29.99,10.0,SW,9.2,-,N/A,,Overcast,220,2013-08-30 15:16:00
7:36 AM,35.6,30.2,81,30.00,10.0,SW,10.4,-,N/A,,Overcast,230,2013-08-30 15:36:00
7:56 AM,35.6,30.2,81,30.00,10.0,SW,9.2,-,N/A,,Overcast,230,2013-08-30 15:56:00
8:16 AM,35.6,28.4,75,30.00,10.0,SW,9.2,-,N/A,,Scattered Clouds,230,2013-08-30 16:16:00
8:36 AM,35.6,28.4,75,30.01,10.0,SW,5.8,-,N/A,,Clear,230,2013-08-30 16:36:00
8:56 AM,33.8,28.4,81,30.01,10.0,SW,6.9,-,N/A,,Partly Cloudy,220,2013-08-30 16:56:00
9:16 AM,35.6,28.4,75,30.01,10.0,SW,8.1,-,N/A,,Clear,230,2013-08-30 17:16:00
9:36 AM,37.4,30.2,75,30.01,10.0,WSW,10.4,-,N/A,,Clear,250,2013-08-30 17:36:00
9:56 AM,37.4,28.4,70,30.01,10.0,WSW,10.4,-,N/A,,Clear,240,2013-08-30 17:56:00
10:16 AM,37.4,28.4,70,30.02,10.0,WSW,11.5,-,N/A,,Clear,240,2013-08-30 18:16:00
10:36 AM,39.2,28.4,65,30.02,10.0,WSW,12.7,-,N/A,,Clear,250,2013-08-30 18:36:00
10:56 AM,39.2,28.4,65,30.02,10.0,WSW,12.7,16.1,N/A,,Clear,250,2013-08-30 18:56:00
11:16 AM,39.2,28.4,65,30.03,10.0,West,12.7,-,N/A,,Clear,260,2013-08-30 19:16:00
11:36 AM,41.0,28.4,61,30.03,10.0,West,13.8,-,N/A,,Clear,270,2013-08-30 19:36:00
11:56 AM,41.0,28.4,61,30.03,10.0,West,12.7,17.3,N/A,,Clear,270,2013-08-30 19:56:00
12:16 PM,42.8,28.4,57,30.04,10.0,West,12.7,-,N/A,,Clear,270,2013-08-30 20:16:00
12:36 PM,42.8,28.4,57,30.04,10.0,West,13.8,-,N/A,,Scattered Clouds,270,2013-08-30 20:36:00
12:56 PM,42.8,28.4,57,30.04,10.0,West,15.0,20.7,N/A,,Clear,280,2013-08-30 20:56:00
1:16 PM,42.8,26.6,53,30.04,10.0,West,12.7,-,N/A,,Clear,270,2013-08-30 21:16:00
1:36 PM,44.6,26.6,49,30.04,10.0,West,12.7,16.1,N/A,,Scattered Clouds,270,2013-08-30 21:36:00
1:56 PM,44.6,28.4,53,30.04,10.0,West,11.5,-,N/A,,Scattered Clouds,280,2013-08-30 21:56:00
2:16 PM,44.6,28.4,53,30.04,10.0,WNW,17.3,-,N/A,,Mostly Cloudy,300,2013-08-30 22:16:00
2:36 PM,44.6,28.4,53,30.04,10.0,West,11.5,-,N/A,,Scattered Clouds,280,2013-08-30 22:36:00
2:56 PM,44.6,26.6,49,30.05,10.0,West,13.8,17.3,N/A,,Scattered Clouds,280,2013-08-30 22:56:00
3:16 PM,44.6,26.6,49,30.05,10.0,WNW,13.8,-,N/A,,Mostly Cloudy,300,2013-08-30 23:16:00
3:36 PM,42.8,28.4,57,30.05,10.0,NNW,9.2,-,N/A,,Mostly Cloudy,330,2013-08-30 23:36:00
3:56 PM,44.6,30.2,57,30.05,10.0,NNW,11.5,19.6,N/A,,Overcast,330,2013-08-30 23:56:00
4:16 PM,44.6,28.4,53,30.05,10.0,WNW,9.2,-,N/A,,Mostly Cloudy,300,2013-08-31 00:16:00
4:36 PM,44.6,28.4,53,30.06,10.0,WNW,11.5,16.1,N/A,,Mostly Cloudy,300,2013-08-31 00:36:00
4:56 PM,44.6,26.6,49,30.06,10.0,WNW,8.1,-,N/A,,Mostly Cloudy,290,2013-08-31 00:56:00
5:16 PM,44.6,28.4,53,30.06,10.0,NW,9.2,-,N/A,,Scattered Clouds,310,2013-08-31 01:16:00
5:36 PM,44.6,26.6,49,30.05,10.0,NW,9.2,-,N/A,,Clear,310,2013-08-31 01:36:00
5:56 PM,44.6,26.6,49,30.05,10.0,WNW,6.9,-,N/A,,Clear,300,2013-08-31 01:56:00
6:16 PM,44.6,28.4,53,30.05,10.0,WNW,8.1,-,N/A,,Clear,290,2013-08-31 02:16:00
6:36 PM,44.6,26.6,49,30.05,10.0,West,5.8,-,N/A,,Clear,280,2013-08-31 02:36:00
6:56 PM,44.6,30.2,57,30.05,10.0,WNW,6.9,-,N/A,,Scattered Clouds,300,2013-08-31 02:56:00
7:16 PM,44.6,28.4,53,30.05,10.0,NNW,8.1,-,N/A,,Mostly Cloudy,340,2013-08-31 03:16:00
7:36 PM,44.6,28.4,53,30.05,10.0,NNW,5.8,-,N/A,,Scattered Clouds,340,2013-08-31 03:36:00
7:56 PM,44.6,26.6,49,30.05,10.0,NNE,4.6,-,N/A,,Scattered Clouds,30,2013-08-31 03:56:00
8:16 PM,44.6,26.6,49,30.05,10.0,NNW,4.6,-,N/A,,Scattered Clouds,330,2013-08-31 04:16:00
8:36 PM,44.6,26.6,49,30.05,10.0,NNW,4.6,-,N/A,,Clear,330,2013-08-31 04:36:00
8:56 PM,42.8,26.6,53,30.05,10.0,North,3.5,-,N/A,,Clear,10,2013-08-31 04:56:00
9:16 PM,42.8,26.6,53,30.04,10.0,NNE,3.5,-,N/A,,Clear,20,2013-08-31 05:16:00
9:36 PM,42.8,28.4,57,30.04,10.0,Calm,Calm,-,N/A,,Clear,0,2013-08-31 05:36:00
9:56 PM,42.8,28.4,57,30.04,10.0,Calm,Calm,-,N/A,,Clear,0,2013-08-31 05:56:00
10:16 PM,39.2,28.4,65,30.05,10.0,Calm,Calm,-,N/A,,Clear,0,2013-08-31 06:16:00
10:36 PM,35.6,28.4,75,30.05,10.0,Calm,Calm,-,N/A,,Clear,0,2013-08-31 06:36:00
10:56 PM,33.8,26.6,75,30.05,10.0,ESE,3.5,-,N/A,,Clear,110,2013-08-31 06:56:00
11:16 PM,33.8,26.6,75,30.05,10.0,Calm,Calm,-,N/A,,Clear,0,2013-08-31 07:16:00
11:36 PM,35.6,26.6,70,30.05,10.0,East,3.5,-,N/A,,Clear,100,2013-08-31 07:36:00
11:56 PM,33.8,26.6,75,30.05,10.0,Calm,Calm,-,N/A,,Clear,0,2013-08-31 07:56:00